When you browse on this site, cookies collect data to enhance your experience and personalize the content and advertising you see.
Visit our Privacy Policy to learn more. By continuing to use the site, you agree to this use of cookies and data.
  • In Lithuania
  • List of Countries
  • For 7 days
  • Water Temperature
  • Satellite Maps
  • Weather Map
  • Weather Widgets
  • user-avatar
    Login

    Hourly Weather Manczyce

    Today, 19 March, Tuesday

    Time Temperature Precipitation Wind Pressure Humidity
    00:00 +1°C° 0 mm 4 mps 750 mmHg 73%
    01:00 +1°C° 0 mm 4 mps 751 mmHg 75%
    02:00 +1°C° 0 mm 4 mps 751 mmHg 77%
    03:00 0°C° 0 mm 4 mps 751 mmHg 79%
    04:00 0°C° 0 mm 4 mps 752 mmHg 81%
    05:00 0°C° 0 mm 4 mps 752 mmHg 81%
    06:00 +1°C° 0 mm 3 mps 753 mmHg 81%
    07:00 +1°C° 0 mm 3 mps 753 mmHg 81%
    08:00 +1°C° 0 mm 4 mps 753 mmHg 74%
    09:00 +3°C° 0 mm 5 mps 754 mmHg 67%
    10:00 +5°C° 0 mm 5 mps 754 mmHg 60%
    11:00 +6°C° 0.1 mm 5 mps 754 mmHg 58%
    12:00 +6°C° 0.1 mm 5 mps 754 mmHg 55%
    13:00 +7°C° 0.1 mm 5 mps 755 mmHg 53%
    14:00 +7°C° 0 mm 4 mps 755 mmHg 52%
    15:00 +7°C° 0 mm 4 mps 755 mmHg 51%
    16:00 +8°C° 0 mm 3 mps 755 mmHg 49%
    17:00 +7°C° 0 mm 3 mps 755 mmHg 54%
    18:00 +6°C° 0 mm 2 mps 756 mmHg 59%
    19:00 +5°C° 0 mm 2 mps 756 mmHg 65%
    20:00 +4°C° 0 mm 2 mps 757 mmHg 68%
    21:00 +3°C° 0 mm 3 mps 758 mmHg 71%
    22:00 +2°C° 0 mm 3 mps 758 mmHg 74%
    23:00 +2°C° 0 mm 3 mps 758 mmHg 76%

    Tomorrow, 20 March, Wednesday

    Time Temperature Precipitation Wind Pressure Humidity
    00:00 +1°C° 0 mm 3 mps 759 mmHg 78%
    01:00 +1°C° 0 mm 3 mps 759 mmHg 80%
    02:00 0°C° 0 mm 3 mps 759 mmHg 81%
    03:00 +1°C° 0 mm 2 mps 759 mmHg 82%
    04:00 +1°C° 0 mm 2 mps 760 mmHg 83%
    05:00 +1°C° 0 mm 2 mps 760 mmHg 81%
    06:00 +1°C° 0 mm 2 mps 760 mmHg 79%
    07:00 +1°C° 0 mm 2 mps 761 mmHg 77%
    08:00 +3°C° 0 mm 2 mps 761 mmHg 69%
    09:00 +5°C° 0 mm 2 mps 761 mmHg 61%
    10:00 +7°C° 0 mm 3 mps 762 mmHg 53%
    11:00 +7°C° 0 mm 3 mps 761 mmHg 49%
    12:00 +8°C° 0 mm 3 mps 761 mmHg 46%
    13:00 +9°C° 0 mm 3 mps 761 mmHg 42%
    14:00 +9°C° 0 mm 3 mps 761 mmHg 42%
    15:00 +10°C° 0 mm 2 mps 761 mmHg 41%
    16:00 +10°C° 0 mm 2 mps 761 mmHg 41%
    17:00 +8°C° 0 mm 2 mps 761 mmHg 46%
    18:00 +8°C° 0 mm 1 mps 761 mmHg 52%
    19:00 +7°C° 0 mm 1 mps 761 mmHg 57%
    20:00 +6°C° 0 mm 1 mps 762 mmHg 59%
    21:00 +5°C° 0 mm 2 mps 762 mmHg 62%
    22:00 +4°C° 0 mm 2 mps 762 mmHg 64%
    23:00 +4°C° 0 mm 2 mps 762 mmHg 65%

    Day after tomorrow, 21 March, Thursday

    Time Temperature Precipitation Wind Pressure Humidity
    00:00 +4°C° 0 mm 2 mps 762 mmHg 66%
    01:00 +4°C° 0 mm 2 mps 762 mmHg 67%
    02:00 +4°C° 0 mm 2 mps 762 mmHg 67%
    03:00 +4°C° 0 mm 2 mps 762 mmHg 67%
    04:00 +3°C° 0 mm 2 mps 762 mmHg 67%
    05:00 +4°C° 0 mm 2 mps 762 mmHg 67%
    06:00 +4°C° 0 mm 2 mps 762 mmHg 67%
    07:00 +4°C° 0 mm 2 mps 762 mmHg 67%
    08:00 +6°C° 0 mm 2 mps 762 mmHg 64%
    09:00 +9°C° 0 mm 2 mps 762 mmHg 61%
    10:00 +12°C° 0 mm 2 mps 762 mmHg 58%
    11:00 +13°C° 0 mm 2 mps 762 mmHg 58%
    12:00 +13°C° 0 mm 2 mps 762 mmHg 58%
    13:00 +14°C° 0 mm 2 mps 761 mmHg 58%
    14:00 +14°C° 0 mm 2 mps 761 mmHg 59%
    15:00 +15°C° 0 mm 2 mps 761 mmHg 59%
    16:00 +15°C° 0 mm 2 mps 760 mmHg 60%
    17:00 +14°C° 0 mm 1 mps 760 mmHg 63%
    18:00 +13°C° 0 mm 1 mps 760 mmHg 66%
    19:00 +11°C° 0 mm 0 mps 760 mmHg 69%
    20:00 +11°C° 0 mm 0 mps 760 mmHg 71%
    21:00 +11°C° 0 mm 1 mps 760 mmHg 73%
    22:00 +10°C° 0 mm 1 mps 760 mmHg 75%
    23:00 +10°C° 0 mm 1 mps 760 mmHg 77%

    22 March, Friday

    Time Temperature Precipitation Wind Pressure Humidity
    00:00 +9°C° 0 mm 1 mps 760 mmHg 79%
    01:00 +9°C° 0 mm 1 mps 760 mmHg 81%
    02:00 +9°C° 0 mm 1 mps 760 mmHg 82%
    03:00 +8°C° 0 mm 1 mps 759 mmHg 83%
    04:00 +8°C° 0 mm 1 mps 759 mmHg 84%
    05:00 +8°C° 0 mm 1 mps 759 mmHg 83%
    06:00 +8°C° 0 mm 1 mps 759 mmHg 82%
    07:00 +9°C° 0 mm 1 mps 759 mmHg 81%
    08:00 +11°C° 0 mm 1 mps 759 mmHg 73%
    09:00 +13°C° 0 mm 2 mps 759 mmHg 65%
    10:00 +15°C° 0 mm 2 mps 759 mmHg 57%
    11:00 +16°C° 0 mm 2 mps 758 mmHg 53%
    12:00 +17°C° 0 mm 2 mps 758 mmHg 49%
    13:00 +18°C° 0 mm 2 mps 757 mmHg 46%
    14:00 +18°C° 0 mm 3 mps 757 mmHg 46%
    15:00 +18°C° 0 mm 3 mps 757 mmHg 46%
    16:00 +18°C° 0 mm 3 mps 756 mmHg 46%
    17:00 +17°C° 0 mm 3 mps 756 mmHg 51%
    18:00 +15°C° 0 mm 2 mps 756 mmHg 57%
    19:00 +13°C° 0 mm 2 mps 756 mmHg 62%
    20:00 +13°C° 0 mm 2 mps 757 mmHg 64%
    21:00 +12°C° 0 mm 2 mps 757 mmHg 66%
    22:00 +10°C° 0 mm 2 mps 757 mmHg 68%
    23:00 +10°C° 0 mm 2 mps 757 mmHg 69%

    23 March, Saturday

    Time Temperature Precipitation Wind Pressure Humidity
    00:00 +10°C° 0 mm 2 mps 757 mmHg 71%
    01:00 +9°C° 0 mm 2 mps 757 mmHg 72%
    02:00 +9°C° 0 mm 2 mps 757 mmHg 75%
    03:00 +8°C° 0 mm 2 mps 757 mmHg 77%
    04:00 +8°C° 0 mm 2 mps 757 mmHg 80%
    05:00 +9°C° 0 mm 1 mps 757 mmHg 80%
    06:00 +10°C° 0 mm 1 mps 757 mmHg 80%
    07:00 +10°C° 0 mm 1 mps 757 mmHg 80%
    08:00 +12°C° 0 mm 1 mps 757 mmHg 74%
    09:00 +13°C° 0 mm 1 mps 757 mmHg 68%
    10:00 +15°C° 0 mm 1 mps 757 mmHg 62%
    11:00 +16°C° 0 mm 1 mps 756 mmHg 59%
    12:00 +18°C° 0 mm 1 mps 756 mmHg 55%
    13:00 +18°C° 0 mm 2 mps 756 mmHg 52%
    14:00 +18°C° 0 mm 2 mps 755 mmHg 51%
    15:00 +18°C° 0 mm 2 mps 755 mmHg 49%
    16:00 +19°C° 0 mm 2 mps 754 mmHg 48%
    17:00 +17°C° 0 mm 2 mps 754 mmHg 53%
    18:00 +16°C° 0 mm 2 mps 754 mmHg 59%
    19:00 +14°C° 0 mm 2 mps 753 mmHg 64%
    20:00 +13°C° 0 mm 2 mps 753 mmHg 65%
    21:00 +13°C° 0 mm 2 mps 753 mmHg 66%
    22:00 +11°C° 0 mm 3 mps 753 mmHg 67%
    23:00 +11°C° 0 mm 3 mps 753 mmHg 67%

    24 March, Sunday

    Time Temperature Precipitation Wind Pressure Humidity
    00:00 +11°C° 0 mm 3 mps 753 mmHg 67%
    01:00 +10°C° 0 mm 3 mps 752 mmHg 67%
    02:00 +10°C° 0 mm 3 mps 752 mmHg 68%
    03:00 +10°C° 0 mm 3 mps 752 mmHg 69%
    04:00 +10°C° 0 mm 3 mps 751 mmHg 70%
    05:00 +10°C° 0 mm 4 mps 751 mmHg 70%
    06:00 +10°C° 0 mm 4 mps 751 mmHg 71%
    07:00 +10°C° 0 mm 4 mps 751 mmHg 71%
    08:00 +12°C° 0 mm 4 mps 751 mmHg 65%
    09:00 +14°C° 0 mm 5 mps 751 mmHg 60%
    10:00 +16°C° 0 mm 5 mps 751 mmHg 54%
    11:00 +17°C° 0 mm 6 mps 750 mmHg 53%
    12:00 +17°C° 0 mm 6 mps 750 mmHg 52%
    13:00 +19°C° 0 mm 6 mps 750 mmHg 51%
    14:00 +17°C° 0 mm 6 mps 750 mmHg 52%
    15:00 +17°C° 0 mm 7 mps 749 mmHg 52%
    16:00 +16°C° 0 mm 7 mps 749 mmHg 53%
    17:00 +15°C° 0 mm 6 mps 749 mmHg 60%
    18:00 +13°C° 0 mm 5 mps 750 mmHg 66%
    19:00 +11°C° 0 mm 4 mps 750 mmHg 73%
    20:00 +11°C° 0 mm 4 mps 750 mmHg 77%
    21:00 +10°C° 0 mm 4 mps 750 mmHg 80%
    22:00 +8°C° 0 mm 4 mps 750 mmHg 84%
    23:00 +7°C° 0 mm 4 mps 750 mmHg 83%
    Show more